owner,sensor,date,latitude,longitude,air_temperature,qcFlag 
COMPS,ioos:station:USF.COMPS:C12:1,2013-10-01T00:29:00Z,27.4980,-83.7220,26.8,1111122 
COMPS,ioos:station:USF.COMPS:C12:1,2013-10-01T01:29:00Z,27.4980,-83.7220,27.1,1111122 
COMPS,ioos:station:USF.COMPS:C12:1,2013-10-01T02:29:00Z,27.4980,-83.7220,27.3,1111122 
COMPS,ioos:station:USF.COMPS:C12:1,2013-10-01T03:29:00Z,27.4980,-83.7220,27.4,1111122 
COMPS,ioos:station:USF.COMPS:C12:1,2013-10-01T04:29:00Z,27.4980,-83.7220,27.7,1111122 
COMPS,ioos:station:USF.COMPS:C12:1,2013-10-01T05:29:00Z,27.4980,-83.7220,27.4,1111122 
COMPS,ioos:station:USF.COMPS:C12:1,2013-10-01T06:29:00Z,27.4980,-83.7220,27.6,1111122 
COMPS,ioos:station:USF.COMPS:C12:1,2013-10-01T07:29:00Z,27.4980,-83.7220,27.7,1111122 
COMPS,ioos:station:USF.COMPS:C12:1,2013-10-01T08:29:00Z,27.4980,-83.7220,27.6,1111122 
COMPS,ioos:station:USF.COMPS:C12:1,2013-10-01T09:29:00Z,27.4980,-83.7220,27.6,1111122 
COMPS,ioos:station:USF.COMPS:C12:1,2013-10-01T10:29:00Z,27.4980,-83.7220,27.5,1111122 
COMPS,ioos:station:USF.COMPS:C12:1,2013-10-01T11:29:00Z,27.4980,-83.7220,27.8,1111122 
COMPS,ioos:station:USF.COMPS:C12:1,2013-10-01T12:29:00Z,27.4980,-83.7220,27.9,1111122 
COMPS,ioos:station:USF.COMPS:C12:1,2013-10-01T13:29:00Z,27.4980,-83.7220,28.7,1111122 
COMPS,ioos:station:USF.COMPS:C12:1,2013-10-01T14:29:00Z,27.4980,-83.7220,28.1,1111122 
COMPS,ioos:station:USF.COMPS:C12:1,2013-10-01T15:29:00Z,27.4980,-83.7220,27.5,1111122 
COMPS,ioos:station:USF.COMPS:C12:1,2013-10-01T16:29:00Z,27.4980,-83.7220,27.6,1111122 
COMPS,ioos:station:USF.COMPS:C12:1,2013-10-01T17:29:00Z,27.4980,-83.7220,27.7,1111122 
COMPS,ioos:station:USF.COMPS:C12:1,2013-10-01T18:29:00Z,27.4980,-83.7220,27.7,1111122 
COMPS,ioos:station:USF.COMPS:C12:1,2013-10-01T19:29:00Z,27.4980,-83.7220,27.9,1111122 
COMPS,ioos:station:USF.COMPS:C12:1,2013-10-01T20:29:00Z,27.4980,-83.7220,28.2,1111122 
COMPS,ioos:station:USF.COMPS:C12:1,2013-10-01T21:29:00Z,27.4980,-83.7220,28.6,1111122 
COMPS,ioos:station:USF.COMPS:C12:1,2013-10-01T23:29:00Z,27.4980,-83.7220,28.0,1111122 
COMPS,ioos:station:USF.COMPS:C12:1,2013-10-02T00:29:00Z,27.4980,-83.7220,27.8,1111122 
COMPS,ioos:station:USF.COMPS:C12:1,2013-10-02T01:29:00Z,27.4980,-83.7220,27.9,1111122 
COMPS,ioos:station:USF.COMPS:C12:1,2013-10-02T02:29:00Z,27.4980,-83.7220,28.0,1111122 
COMPS,ioos:station:USF.COMPS:C12:1,2013-10-02T03:29:00Z,27.4980,-83.7220,28.4,1111122 
COMPS,ioos:station:USF.COMPS:C12:1,2013-10-02T04:29:00Z,27.4980,-83.7220,28.3,1111122 
COMPS,ioos:station:USF.COMPS:C12:1,2013-10-02T05:29:00Z,27.4980,-83.7220,27.8,1111122 
COMPS,ioos:station:USF.COMPS:C12:1,2013-10-02T06:29:00Z,27.4980,-83.7220,27.4,1111122 
COMPS,ioos:station:USF.COMPS:C12:1,2013-10-02T07:29:00Z,27.4980,-83.7220,27.2,1111122 
COMPS,ioos:station:USF.COMPS:C12:1,2013-10-02T08:29:00Z,27.4980,-83.7220,27.2,1111122 
COMPS,ioos:station:USF.COMPS:C12:1,2013-10-02T09:29:00Z,27.4980,-83.7220,27.0,1111122 
COMPS,ioos:station:USF.COMPS:C12:1,2013-10-02T10:29:00Z,27.4980,-83.7220,26.9,1111122 
COMPS,ioos:station:USF.COMPS:C12:1,2013-10-02T11:29:00Z,27.4980,-83.7220,26.8,1111122 
COMPS,ioos:station:USF.COMPS:C12:1,2013-10-02T12:29:00Z,27.4980,-83.7220,27.0,1111122 
COMPS,ioos:station:USF.COMPS:C12:1,2013-10-02T13:29:00Z,27.4980,-83.7220,27.2,1111122 
COMPS,ioos:station:USF.COMPS:C12:1,2013-10-02T14:29:00Z,27.4980,-83.7220,27.2,1111122 
COMPS,ioos:station:USF.COMPS:C12:1,2013-10-02T15:29:00Z,27.4980,-83.7220,27.1,1111122 
COMPS,ioos:station:USF.COMPS:C12:1,2013-10-02T16:29:00Z,27.4980,-83.7220,27.2,1111122 
COMPS,ioos:station:USF.COMPS:C12:1,2013-10-02T17:29:00Z,27.4980,-83.7220,27.3,1111122 
COMPS,ioos:station:USF.COMPS:C12:1,2013-10-02T18:29:00Z,27.4980,-83.7220,27.4,1111122 
COMPS,ioos:station:USF.COMPS:C12:1,2013-10-02T19:29:00Z,27.4980,-83.7220,27.5,1111122 
COMPS,ioos:station:USF.COMPS:C12:1,2013-10-02T20:29:00Z,27.4980,-83.7220,27.9,1111122 
COMPS,ioos:station:USF.COMPS:C12:1,2013-10-02T21:29:00Z,27.4980,-83.7220,28.2,1111122 
COMPS,ioos:station:USF.COMPS:C12:1,2013-10-02T23:29:00Z,27.4980,-83.7220,27.7,1111122 
COMPS,ioos:station:USF.COMPS:C12:1,2013-10-03T00:29:00Z,27.4980,-83.7220,28.1,1111122 
COMPS,ioos:station:USF.COMPS:C12:1,2013-10-03T01:29:00Z,27.4980,-83.7220,28.4,1111122 
COMPS,ioos:station:USF.COMPS:C12:1,2013-10-03T02:29:00Z,27.4980,-83.7220,28.8,1111122 
COMPS,ioos:station:USF.COMPS:C12:1,2013-10-03T03:29:00Z,27.4980,-83.7220,27.7,1111122 
COMPS,ioos:station:USF.COMPS:C12:1,2013-10-03T04:29:00Z,27.4980,-83.7220,27.7,1111122 
COMPS,ioos:station:USF.COMPS:C12:1,2013-10-03T05:29:00Z,27.4980,-83.7220,27.8,1111122 
COMPS,ioos:station:USF.COMPS:C12:1,2013-10-03T06:29:00Z,27.4980,-83.7220,27.7,1111122 
COMPS,ioos:station:USF.COMPS:C12:1,2013-10-03T07:29:00Z,27.4980,-83.7220,27.6,1111122 
COMPS,ioos:station:USF.COMPS:C12:1,2013-10-03T08:29:00Z,27.4980,-83.7220,27.4,1111122 
COMPS,ioos:station:USF.COMPS:C12:1,2013-10-03T09:29:00Z,27.4980,-83.7220,27.0,1111122 
COMPS,ioos:station:USF.COMPS:C12:1,2013-10-03T10:29:00Z,27.4980,-83.7220,27.1,1111122 
COMPS,ioos:station:USF.COMPS:C12:1,2013-10-03T11:29:00Z,27.4980,-83.7220,26.8,1111122 
COMPS,ioos:station:USF.COMPS:C12:1,2013-10-03T12:29:00Z,27.4980,-83.7220,26.9,1111122 
COMPS,ioos:station:USF.COMPS:C12:1,2013-10-03T13:29:00Z,27.4980,-83.7220,27.2,1111122 
COMPS,ioos:station:USF.COMPS:C12:1,2013-10-03T14:29:00Z,27.4980,-83.7220,27.3,1111122 
COMPS,ioos:station:USF.COMPS:C12:1,2013-10-03T15:29:00Z,27.4980,-83.7220,27.4,1111122 
COMPS,ioos:station:USF.COMPS:C12:1,2013-10-03T16:29:00Z,27.4980,-83.7220,27.4,1111122 
COMPS,ioos:station:USF.COMPS:C12:1,2013-10-03T17:29:00Z,27.4980,-83.7220,27.4,1111122 
COMPS,ioos:station:USF.COMPS:C12:1,2013-10-03T18:29:00Z,27.4980,-83.7220,27.5,1111122 
COMPS,ioos:station:USF.COMPS:C12:1,2013-10-03T19:29:00Z,27.4980,-83.7220,27.7,1111122 
COMPS,ioos:station:USF.COMPS:C12:1,2013-10-03T20:29:00Z,27.4980,-83.7220,27.7,1111122 
COMPS,ioos:station:USF.COMPS:C12:1,2013-10-03T21:29:00Z,27.4980,-83.7220,27.7,1111122 
COMPS,ioos:station:USF.COMPS:C12:1,2013-10-03T22:29:00Z,27.4980,-83.7220,27.7,1111122 
COMPS,ioos:station:USF.COMPS:C12:1,2013-10-03T23:29:00Z,27.4980,-83.7220,27.6,1111122 
COMPS,ioos:station:USF.COMPS:C12:1,2013-10-04T00:29:00Z,27.4980,-83.7220,27.6,1111122 
COMPS,ioos:station:USF.COMPS:C12:1,2013-10-04T01:29:00Z,27.4980,-83.7220,27.6,1111122 
COMPS,ioos:station:USF.COMPS:C12:1,2013-10-04T02:29:00Z,27.4980,-83.7220,27.6,1111122 
COMPS,ioos:station:USF.COMPS:C12:1,2013-10-04T03:29:00Z,27.4980,-83.7220,27.6,1111122 
COMPS,ioos:station:USF.COMPS:C12:1,2013-10-04T04:29:00Z,27.4980,-83.7220,27.9,1111122 
COMPS,ioos:station:USF.COMPS:C12:1,2013-10-04T05:29:00Z,27.4980,-83.7220,27.8,1111122 
COMPS,ioos:station:USF.COMPS:C12:1,2013-10-04T06:29:00Z,27.4980,-83.7220,27.9,1111122 
COMPS,ioos:station:USF.COMPS:C12:1,2013-10-04T07:29:00Z,27.4980,-83.7220,27.8,1111122 
COMPS,ioos:station:USF.COMPS:C12:1,2013-10-04T08:29:00Z,27.4980,-83.7220,27.7,1111122 
COMPS,ioos:station:USF.COMPS:C12:1,2013-10-04T09:29:00Z,27.4980,-83.7220,27.8,1111122 
COMPS,ioos:station:USF.COMPS:C12:1,2013-10-04T10:29:00Z,27.4980,-83.7220,27.4,1111122 
COMPS,ioos:station:USF.COMPS:C12:1,2013-10-04T11:29:00Z,27.4980,-83.7220,27.2,1111122 
COMPS,ioos:station:USF.COMPS:C12:1,2013-10-04T12:29:00Z,27.4980,-83.7220,27.3,1111122 
COMPS,ioos:station:USF.COMPS:C12:1,2013-10-04T13:29:00Z,27.4980,-83.7220,27.7,1111122 
COMPS,ioos:station:USF.COMPS:C12:1,2013-10-04T14:29:00Z,27.4980,-83.7220,27.9,1111122 
COMPS,ioos:station:USF.COMPS:C12:1,2013-10-04T15:29:00Z,27.4980,-83.7220,27.8,1111122 
COMPS,ioos:station:USF.COMPS:C12:1,2013-10-04T16:29:00Z,27.4980,-83.7220,27.8,1111122 
COMPS,ioos:station:USF.COMPS:C12:1,2013-10-04T17:29:00Z,27.4980,-83.7220,27.7,1111122 
COMPS,ioos:station:USF.COMPS:C12:1,2013-10-04T18:29:00Z,27.4980,-83.7220,27.9,1111122 
COMPS,ioos:station:USF.COMPS:C12:1,2013-10-04T19:29:00Z,27.4980,-83.7220,27.9,1111122 
COMPS,ioos:station:USF.COMPS:C12:1,2013-10-04T20:29:00Z,27.4980,-83.7220,27.8,1111122 
COMPS,ioos:station:USF.COMPS:C12:1,2013-10-04T21:29:00Z,27.4980,-83.7220,27.8,1111122 
COMPS,ioos:station:USF.COMPS:C12:1,2013-10-04T22:29:00Z,27.4980,-83.7220,27.8,1111122 
COMPS,ioos:station:USF.COMPS:C12:1,2013-10-04T23:29:00Z,27.4980,-83.7220,27.5,1111122 
COMPS,ioos:station:USF.COMPS:C12:1,2013-10-05T00:29:00Z,27.4980,-83.7220,27.5,1111122 
COMPS,ioos:station:USF.COMPS:C12:1,2013-10-05T01:29:00Z,27.4980,-83.7220,27.8,1111122 
COMPS,ioos:station:USF.COMPS:C12:1,2013-10-05T02:29:00Z,27.4980,-83.7220,27.9,1111122 
COMPS,ioos:station:USF.COMPS:C12:1,2013-10-05T03:29:00Z,27.4980,-83.7220,27.9,1111122 
COMPS,ioos:station:USF.COMPS:C12:1,2013-10-05T04:29:00Z,27.4980,-83.7220,28.0,1111122 
COMPS,ioos:station:USF.COMPS:C12:1,2013-10-05T05:29:00Z,27.4980,-83.7220,28.0,1111122 
COMPS,ioos:station:USF.COMPS:C12:1,2013-10-05T06:29:00Z,27.4980,-83.7220,27.9,1111122 
COMPS,ioos:station:USF.COMPS:C12:1,2013-10-05T07:29:00Z,27.4980,-83.7220,27.6,1111122 
COMPS,ioos:station:USF.COMPS:C12:1,2013-10-05T08:29:00Z,27.4980,-83.7220,27.4,1111122 
COMPS,ioos:station:USF.COMPS:C12:1,2013-10-05T09:29:00Z,27.4980,-83.7220,27.4,1111122 
COMPS,ioos:station:USF.COMPS:C12:1,2013-10-05T10:29:00Z,27.4980,-83.7220,27.5,1111122 
COMPS,ioos:station:USF.COMPS:C12:1,2013-10-05T11:29:00Z,27.4980,-83.7220,27.4,1111122 
COMPS,ioos:station:USF.COMPS:C12:1,2013-10-05T12:29:00Z,27.4980,-83.7220,27.4,1111122 
COMPS,ioos:station:USF.COMPS:C12:1,2013-10-05T13:29:00Z,27.4980,-83.7220,27.4,1111122 
COMPS,ioos:station:USF.COMPS:C12:1,2013-10-05T14:29:00Z,27.4980,-83.7220,27.3,1111122 
COMPS,ioos:station:USF.COMPS:C12:1,2013-10-05T15:29:00Z,27.4980,-83.7220,27.3,1111122 
COMPS,ioos:station:USF.COMPS:C12:1,2013-10-05T16:29:00Z,27.4980,-83.7220,27.3,1111122 
COMPS,ioos:station:USF.COMPS:C12:1,2013-10-05T17:29:00Z,27.4980,-83.7220,27.3,1111122 
COMPS,ioos:station:USF.COMPS:C12:1,2013-10-05T18:29:00Z,27.4980,-83.7220,27.5,1111122 
COMPS,ioos:station:USF.COMPS:C12:1,2013-10-05T19:29:00Z,27.4980,-83.7220,27.7,1111122 
COMPS,ioos:station:USF.COMPS:C12:1,2013-10-05T20:29:00Z,27.4980,-83.7220,27.8,1111122 
COMPS,ioos:station:USF.COMPS:C12:1,2013-10-05T21:29:00Z,27.4980,-83.7220,27.6,1111122 
COMPS,ioos:station:USF.COMPS:C12:1,2013-10-05T22:29:00Z,27.4980,-83.7220,28.0,1111122 
COMPS,ioos:station:USF.COMPS:C12:1,2013-10-05T23:29:00Z,27.4980,-83.7220,27.4,1111122 
COMPS,ioos:station:USF.COMPS:C12:1,2013-10-06T00:29:00Z,27.4980,-83.7220,27.4,1111122 
COMPS,ioos:station:USF.COMPS:C12:1,2013-10-06T01:29:00Z,27.4980,-83.7220,27.4,1111122 
COMPS,ioos:station:USF.COMPS:C12:1,2013-10-06T02:29:00Z,27.4980,-83.7220,27.5,1111122 
COMPS,ioos:station:USF.COMPS:C12:1,2013-10-06T03:29:00Z,27.4980,-83.7220,27.5,1111122 
COMPS,ioos:station:USF.COMPS:C12:1,2013-10-06T04:29:00Z,27.4980,-83.7220,27.7,1111122 
COMPS,ioos:station:USF.COMPS:C12:1,2013-10-06T05:29:00Z,27.4980,-83.7220,27.8,1111122 
COMPS,ioos:station:USF.COMPS:C12:1,2013-10-06T06:29:00Z,27.4980,-83.7220,27.8,1111122 
COMPS,ioos:station:USF.COMPS:C12:1,2013-10-06T07:29:00Z,27.4980,-83.7220,27.5,1111122 
COMPS,ioos:station:USF.COMPS:C12:1,2013-10-06T08:29:00Z,27.4980,-83.7220,27.2,1111122 
COMPS,ioos:station:USF.COMPS:C12:1,2013-10-06T09:29:00Z,27.4980,-83.7220,27.2,1111122 
COMPS,ioos:station:USF.COMPS:C12:1,2013-10-06T10:29:00Z,27.4980,-83.7220,27.2,1111122 
COMPS,ioos:station:USF.COMPS:C12:1,2013-10-06T11:29:00Z,27.4980,-83.7220,27.3,1111122 
COMPS,ioos:station:USF.COMPS:C12:1,2013-10-06T12:29:00Z,27.4980,-83.7220,27.9,1111122 
COMPS,ioos:station:USF.COMPS:C12:1,2013-10-06T13:29:00Z,27.4980,-83.7220,28.2,1111122 
COMPS,ioos:station:USF.COMPS:C12:1,2013-10-06T14:29:00Z,27.4980,-83.7220,28.2,1111122 
COMPS,ioos:station:USF.COMPS:C12:1,2013-10-06T15:29:00Z,27.4980,-83.7220,28.1,1111122 
COMPS,ioos:station:USF.COMPS:C12:1,2013-10-06T16:29:00Z,27.4980,-83.7220,27.3,1111122 
COMPS,ioos:station:USF.COMPS:C12:1,2013-10-06T17:29:00Z,27.4980,-83.7220,28.4,1111122 
COMPS,ioos:station:USF.COMPS:C12:1,2013-10-06T18:29:00Z,27.4980,-83.7220,28.4,1111122 
COMPS,ioos:station:USF.COMPS:C12:1,2013-10-06T19:29:00Z,27.4980,-83.7220,28.4,1111122 
COMPS,ioos:station:USF.COMPS:C12:1,2013-10-06T20:29:00Z,27.4980,-83.7220,28.5,1111122 
COMPS,ioos:station:USF.COMPS:C12:1,2013-10-06T21:29:00Z,27.4980,-83.7220,28.3,1111122 
COMPS,ioos:station:USF.COMPS:C12:1,2013-10-06T22:29:00Z,27.4980,-83.7220,28.1,1111122 
COMPS,ioos:station:USF.COMPS:C12:1,2013-10-06T23:29:00Z,27.4980,-83.7220,27.7,1111122 
COMPS,ioos:station:USF.COMPS:C12:1,2013-10-07T00:29:00Z,27.4980,-83.7220,27.7,1111122 
COMPS,ioos:station:USF.COMPS:C12:1,2013-10-07T01:29:00Z,27.4980,-83.7220,27.8,1111122 
COMPS,ioos:station:USF.COMPS:C12:1,2013-10-07T02:29:00Z,27.4980,-83.7220,27.2,1111122 
COMPS,ioos:station:USF.COMPS:C12:1,2013-10-07T04:29:00Z,27.4980,-83.7220,25.8,1111122 
COMPS,ioos:station:USF.COMPS:C12:1,2013-10-07T05:29:00Z,27.4980,-83.7220,25.8,1111122 
COMPS,ioos:station:USF.COMPS:C12:1,2013-10-07T06:29:00Z,27.4980,-83.7220,26.6,1111122 
COMPS,ioos:station:USF.COMPS:C12:1,2013-10-07T07:29:00Z,27.4980,-83.7220,27.1,1111122 
COMPS,ioos:station:USF.COMPS:C12:1,2013-10-07T08:29:00Z,27.4980,-83.7220,27.4,1111122 
COMPS,ioos:station:USF.COMPS:C12:1,2013-10-07T09:29:00Z,27.4980,-83.7220,26.4,1111122 
COMPS,ioos:station:USF.COMPS:C12:1,2013-10-07T10:29:00Z,27.4980,-83.7220,25.6,1111122 
COMPS,ioos:station:USF.COMPS:C12:1,2013-10-07T11:29:00Z,27.4980,-83.7220,25.9,1111122 
COMPS,ioos:station:USF.COMPS:C12:1,2013-10-07T12:29:00Z,27.4980,-83.7220,25.4,1111122 
COMPS,ioos:station:USF.COMPS:C12:1,2013-10-07T13:29:00Z,27.4980,-83.7220,27.2,1111122 
COMPS,ioos:station:USF.COMPS:C12:1,2013-10-07T14:29:00Z,27.4980,-83.7220,27.5,1111122 
COMPS,ioos:station:USF.COMPS:C12:1,2013-10-07T15:29:00Z,27.4980,-83.7220,27.2,1111122 
COMPS,ioos:station:USF.COMPS:C12:1,2013-10-07T16:29:00Z,27.4980,-83.7220,27.7,1111122 
COMPS,ioos:station:USF.COMPS:C12:1,2013-10-07T17:29:00Z,27.4980,-83.7220,28.0,1111122 
COMPS,ioos:station:USF.COMPS:C12:1,2013-10-07T18:29:00Z,27.4980,-83.7220,27.8,1111122 
COMPS,ioos:station:USF.COMPS:C12:1,2013-10-07T19:29:00Z,27.4980,-83.7220,27.8,1111122 
COMPS,ioos:station:USF.COMPS:C12:1,2013-10-07T20:29:00Z,27.4980,-83.7220,27.7,1111122 
COMPS,ioos:station:USF.COMPS:C12:1,2013-10-07T21:29:00Z,27.4980,-83.7220,27.7,1111122 
COMPS,ioos:station:USF.COMPS:C12:1,2013-10-07T22:29:00Z,27.4980,-83.7220,27.6,1111122 
COMPS,ioos:station:USF.COMPS:C12:1,2013-10-08T00:29:00Z,27.4980,-83.7220,27.2,1111122 
COMPS,ioos:station:USF.COMPS:C12:1,2013-10-08T01:29:00Z,27.4980,-83.7220,27.2,1111122 
COMPS,ioos:station:USF.COMPS:C12:1,2013-10-08T02:29:00Z,27.4980,-83.7220,27.0,1111122 
COMPS,ioos:station:USF.COMPS:C12:1,2013-10-08T03:29:00Z,27.4980,-83.7220,27.0,1111122 
COMPS,ioos:station:USF.COMPS:C12:1,2013-10-08T04:29:00Z,27.4980,-83.7220,26.9,1111122 
COMPS,ioos:station:USF.COMPS:C12:1,2013-10-08T05:29:00Z,27.4980,-83.7220,26.7,1111122 
COMPS,ioos:station:USF.COMPS:C12:1,2013-10-08T06:29:00Z,27.4980,-83.7220,26.6,1111122 
COMPS,ioos:station:USF.COMPS:C12:1,2013-10-08T07:29:00Z,27.4980,-83.7220,26.6,1111122 
COMPS,ioos:station:USF.COMPS:C12:1,2013-10-08T08:29:00Z,27.4980,-83.7220,26.6,1111122 
COMPS,ioos:station:USF.COMPS:C12:1,2013-10-08T09:29:00Z,27.4980,-83.7220,26.6,1111122 
COMPS,ioos:station:USF.COMPS:C12:1,2013-10-08T10:29:00Z,27.4980,-83.7220,26.6,1111122 
COMPS,ioos:station:USF.COMPS:C12:1,2013-10-08T11:29:00Z,27.4980,-83.7220,26.6,1111122 
COMPS,ioos:station:USF.COMPS:C12:1,2013-10-08T12:29:00Z,27.4980,-83.7220,26.9,1111122 
COMPS,ioos:station:USF.COMPS:C12:1,2013-10-08T13:29:00Z,27.4980,-83.7220,27.4,1111122 
COMPS,ioos:station:USF.COMPS:C12:1,2013-10-08T14:29:00Z,27.4980,-83.7220,28.3,1111122 
COMPS,ioos:station:USF.COMPS:C12:1,2013-10-08T15:29:00Z,27.4980,-83.7220,27.7,1111122 
COMPS,ioos:station:USF.COMPS:C12:1,2013-10-08T16:29:00Z,27.4980,-83.7220,27.7,1111122 
COMPS,ioos:station:USF.COMPS:C12:1,2013-10-08T17:29:00Z,27.4980,-83.7220,27.0,1111122 
COMPS,ioos:station:USF.COMPS:C12:1,2013-10-08T18:29:00Z,27.4980,-83.7220,27.5,1111122 
COMPS,ioos:station:USF.COMPS:C12:1,2013-10-08T20:29:00Z,27.4980,-83.7220,27.3,1111122 
COMPS,ioos:station:USF.COMPS:C12:1,2013-10-08T21:29:00Z,27.4980,-83.7220,27.1,1111122 
COMPS,ioos:station:USF.COMPS:C12:1,2013-10-08T23:29:00Z,27.4980,-83.7220,26.8,1111122 
COMPS,ioos:station:USF.COMPS:C12:1,2013-10-09T00:29:00Z,27.4980,-83.7220,27.0,1111122 
COMPS,ioos:station:USF.COMPS:C12:1,2013-10-09T01:29:00Z,27.4980,-83.7220,26.8,1111122 
COMPS,ioos:station:USF.COMPS:C12:1,2013-10-09T02:29:00Z,27.4980,-83.7220,26.8,1111122 
COMPS,ioos:station:USF.COMPS:C12:1,2013-10-09T03:29:00Z,27.4980,-83.7220,26.8,1111122 
COMPS,ioos:station:USF.COMPS:C12:1,2013-10-09T04:29:00Z,27.4980,-83.7220,26.5,1111122 
COMPS,ioos:station:USF.COMPS:C12:1,2013-10-09T06:29:00Z,27.4980,-83.7220,25.9,1111122 
COMPS,ioos:station:USF.COMPS:C12:1,2013-10-09T07:29:00Z,27.4980,-83.7220,25.8,1111122 
COMPS,ioos:station:USF.COMPS:C12:1,2013-10-09T08:29:00Z,27.4980,-83.7220,25.6,1111122 
COMPS,ioos:station:USF.COMPS:C12:1,2013-10-09T09:29:00Z,27.4980,-83.7220,25.7,1111122 
COMPS,ioos:station:USF.COMPS:C12:1,2013-10-09T10:29:00Z,27.4980,-83.7220,25.7,1111122 
COMPS,ioos:station:USF.COMPS:C12:1,2013-10-09T11:29:00Z,27.4980,-83.7220,25.9,1111122 
COMPS,ioos:station:USF.COMPS:C12:1,2013-10-09T12:29:00Z,27.4980,-83.7220,25.6,1111122 
COMPS,ioos:station:USF.COMPS:C12:1,2013-10-09T13:29:00Z,27.4980,-83.7220,25.6,1111122 
COMPS,ioos:station:USF.COMPS:C12:1,2013-10-09T14:29:00Z,27.4980,-83.7220,25.7,1111122 
COMPS,ioos:station:USF.COMPS:C12:1,2013-10-09T15:29:00Z,27.4980,-83.7220,25.6,1111122 
COMPS,ioos:station:USF.COMPS:C12:1,2013-10-09T16:29:00Z,27.4980,-83.7220,25.4,1111122 
COMPS,ioos:station:USF.COMPS:C12:1,2013-10-09T17:29:00Z,27.4980,-83.7220,25.3,1111122 
COMPS,ioos:station:USF.COMPS:C12:1,2013-10-09T18:29:00Z,27.4980,-83.7220,25.3,1111122 
COMPS,ioos:station:USF.COMPS:C12:1,2013-10-09T19:29:00Z,27.4980,-83.7220,25.4,1111122 
COMPS,ioos:station:USF.COMPS:C12:1,2013-10-09T20:29:00Z,27.4980,-83.7220,25.4,1111122 
COMPS,ioos:station:USF.COMPS:C12:1,2013-10-09T21:29:00Z,27.4980,-83.7220,25.3,1111122 
COMPS,ioos:station:USF.COMPS:C12:1,2013-10-09T23:29:00Z,27.4980,-83.7220,25.0,1111122 
COMPS,ioos:station:USF.COMPS:C12:1,2013-10-10T00:29:00Z,27.4980,-83.7220,25.0,1111122 
COMPS,ioos:station:USF.COMPS:C12:1,2013-10-10T01:29:00Z,27.4980,-83.7220,25.2,1111122 
COMPS,ioos:station:USF.COMPS:C12:1,2013-10-10T02:29:00Z,27.4980,-83.7220,25.5,1111122 
COMPS,ioos:station:USF.COMPS:C12:1,2013-10-10T03:29:00Z,27.4980,-83.7220,25.8,1111122 
COMPS,ioos:station:USF.COMPS:C12:1,2013-10-10T04:29:00Z,27.4980,-83.7220,25.4,1111122 
COMPS,ioos:station:USF.COMPS:C12:1,2013-10-10T05:29:00Z,27.4980,-83.7220,24.7,1111122 
COMPS,ioos:station:USF.COMPS:C12:1,2013-10-10T06:29:00Z,27.4980,-83.7220,24.3,1111122 
COMPS,ioos:station:USF.COMPS:C12:1,2013-10-10T07:29:00Z,27.4980,-83.7220,24.4,1111122 
COMPS,ioos:station:USF.COMPS:C12:1,2013-10-10T08:29:00Z,27.4980,-83.7220,24.4,1111122 
COMPS,ioos:station:USF.COMPS:C12:1,2013-10-10T09:29:00Z,27.4980,-83.7220,24.4,1111122 
COMPS,ioos:station:USF.COMPS:C12:1,2013-10-10T10:29:00Z,27.4980,-83.7220,24.2,1111122 
COMPS,ioos:station:USF.COMPS:C12:1,2013-10-10T12:29:00Z,27.4980,-83.7220,24.2,1111122 
COMPS,ioos:station:USF.COMPS:C12:1,2013-10-10T13:29:00Z,27.4980,-83.7220,24.9,1111122 
COMPS,ioos:station:USF.COMPS:C12:1,2013-10-10T14:29:00Z,27.4980,-83.7220,25.2,1111122 
COMPS,ioos:station:USF.COMPS:C12:1,2013-10-10T15:29:00Z,27.4980,-83.7220,25.1,1111122 
COMPS,ioos:station:USF.COMPS:C12:1,2013-10-10T16:29:00Z,27.4980,-83.7220,25.1,1111122 
COMPS,ioos:station:USF.COMPS:C12:1,2013-10-10T17:29:00Z,27.4980,-83.7220,25.3,1111122 
COMPS,ioos:station:USF.COMPS:C12:1,2013-10-10T18:29:00Z,27.4980,-83.7220,25.3,1111122 
COMPS,ioos:station:USF.COMPS:C12:1,2013-10-10T19:29:00Z,27.4980,-83.7220,25.4,1111122 
COMPS,ioos:station:USF.COMPS:C12:1,2013-10-10T20:29:00Z,27.4980,-83.7220,25.4,1111122 
COMPS,ioos:station:USF.COMPS:C12:1,2013-10-10T21:29:00Z,27.4980,-83.7220,25.5,1111122 
COMPS,ioos:station:USF.COMPS:C12:1,2013-10-10T23:29:00Z,27.4980,-83.7220,25.4,1111122 
COMPS,ioos:station:USF.COMPS:C12:1,2013-10-11T00:29:00Z,27.4980,-83.7220,25.6,1111122 
COMPS,ioos:station:USF.COMPS:C12:1,2013-10-11T01:29:00Z,27.4980,-83.7220,25.8,1111122 
COMPS,ioos:station:USF.COMPS:C12:1,2013-10-11T02:29:00Z,27.4980,-83.7220,26.1,1111122 
COMPS,ioos:station:USF.COMPS:C12:1,2013-10-11T03:29:00Z,27.4980,-83.7220,26.3,1111122 
COMPS,ioos:station:USF.COMPS:C12:1,2013-10-11T04:29:00Z,27.4980,-83.7220,26.4,1111122 
COMPS,ioos:station:USF.COMPS:C12:1,2013-10-11T05:29:00Z,27.4980,-83.7220,26.5,1111122 
COMPS,ioos:station:USF.COMPS:C12:1,2013-10-11T06:29:00Z,27.4980,-83.7220,26.6,1111122 
COMPS,ioos:station:USF.COMPS:C12:1,2013-10-11T07:29:00Z,27.4980,-83.7220,26.6,1111122 
COMPS,ioos:station:USF.COMPS:C12:1,2013-10-11T08:29:00Z,27.4980,-83.7220,26.1,1111122 
COMPS,ioos:station:USF.COMPS:C12:1,2013-10-11T09:29:00Z,27.4980,-83.7220,26.1,1111122 
COMPS,ioos:station:USF.COMPS:C12:1,2013-10-11T10:29:00Z,27.4980,-83.7220,25.9,1111122 
COMPS,ioos:station:USF.COMPS:C12:1,2013-10-11T11:29:00Z,27.4980,-83.7220,25.9,1111122 
COMPS,ioos:station:USF.COMPS:C12:1,2013-10-11T12:29:00Z,27.4980,-83.7220,26.5,1111122 
COMPS,ioos:station:USF.COMPS:C12:1,2013-10-11T13:29:00Z,27.4980,-83.7220,27.1,1111122 
COMPS,ioos:station:USF.COMPS:C12:1,2013-10-11T14:29:00Z,27.4980,-83.7220,26.6,1111122 
COMPS,ioos:station:USF.COMPS:C12:1,2013-10-11T15:29:00Z,27.4980,-83.7220,26.5,1111122 
COMPS,ioos:station:USF.COMPS:C12:1,2013-10-11T16:29:00Z,27.4980,-83.7220,26.7,1111122 
COMPS,ioos:station:USF.COMPS:C12:1,2013-10-11T17:29:00Z,27.4980,-83.7220,25.8,1111122 
COMPS,ioos:station:USF.COMPS:C12:1,2013-10-11T18:29:00Z,27.4980,-83.7220,26.8,1111122 
COMPS,ioos:station:USF.COMPS:C12:1,2013-10-11T19:29:00Z,27.4980,-83.7220,26.9,1111122 
COMPS,ioos:station:USF.COMPS:C12:1,2013-10-11T20:29:00Z,27.4980,-83.7220,27.0,1111122 
COMPS,ioos:station:USF.COMPS:C12:1,2013-10-11T21:29:00Z,27.4980,-83.7220,27.4,1111122 
COMPS,ioos:station:USF.COMPS:C12:1,2013-10-11T22:29:00Z,27.4980,-83.7220,27.3,1111122 
COMPS,ioos:station:USF.COMPS:C12:1,2013-10-11T23:29:00Z,27.4980,-83.7220,26.3,1111122 
COMPS,ioos:station:USF.COMPS:C12:1,2013-10-12T01:29:00Z,27.4980,-83.7220,26.1,1111122 
COMPS,ioos:station:USF.COMPS:C12:1,2013-10-12T02:29:00Z,27.4980,-83.7220,26.2,1111122 
COMPS,ioos:station:USF.COMPS:C12:1,2013-10-12T04:29:00Z,27.4980,-83.7220,26.0,1111122 
COMPS,ioos:station:USF.COMPS:C12:1,2013-10-12T05:29:00Z,27.4980,-83.7220,25.9,1111122 
COMPS,ioos:station:USF.COMPS:C12:1,2013-10-12T06:29:00Z,27.4980,-83.7220,25.9,1111122 
COMPS,ioos:station:USF.COMPS:C12:1,2013-10-12T07:29:00Z,27.4980,-83.7220,26.0,1111122 
COMPS,ioos:station:USF.COMPS:C12:1,2013-10-12T08:29:00Z,27.4980,-83.7220,26.2,1111122 
COMPS,ioos:station:USF.COMPS:C12:1,2013-10-12T09:29:00Z,27.4980,-83.7220,26.2,1111122 
COMPS,ioos:station:USF.COMPS:C12:1,2013-10-12T10:29:00Z,27.4980,-83.7220,26.2,1111122 
COMPS,ioos:station:USF.COMPS:C12:1,2013-10-12T11:29:00Z,27.4980,-83.7220,26.4,1111122 
COMPS,ioos:station:USF.COMPS:C12:1,2013-10-12T12:29:00Z,27.4980,-83.7220,26.8,1111122 
COMPS,ioos:station:USF.COMPS:C12:1,2013-10-12T13:29:00Z,27.4980,-83.7220,27.2,1111122 
COMPS,ioos:station:USF.COMPS:C12:1,2013-10-12T14:29:00Z,27.4980,-83.7220,27.1,1111122 
COMPS,ioos:station:USF.COMPS:C12:1,2013-10-12T15:29:00Z,27.4980,-83.7220,26.8,1111122 
COMPS,ioos:station:USF.COMPS:C12:1,2013-10-12T16:29:00Z,27.4980,-83.7220,26.7,1111122 
COMPS,ioos:station:USF.COMPS:C12:1,2013-10-12T17:29:00Z,27.4980,-83.7220,26.6,1111122 
COMPS,ioos:station:USF.COMPS:C12:1,2013-10-12T18:29:00Z,27.4980,-83.7220,27.3,1111122 
COMPS,ioos:station:USF.COMPS:C12:1,2013-10-12T19:29:00Z,27.4980,-83.7220,27.6,1111122 
COMPS,ioos:station:USF.COMPS:C12:1,2013-10-12T20:29:00Z,27.4980,-83.7220,27.6,1111122 
COMPS,ioos:station:USF.COMPS:C12:1,2013-10-12T21:29:00Z,27.4980,-83.7220,27.7,1111122 
COMPS,ioos:station:USF.COMPS:C12:1,2013-10-12T22:29:00Z,27.4980,-83.7220,27.4,1111122 